This is the latest recevied weather packets stored in our database for station/object VK2XSE. If no packets are shown the sender has not sent any weather packets the latest 10 day(s).
| Time | Temp. | Humidity | Pressure | Rain* | Wind** | Luminosity | Snow |
|---|---|---|---|---|---|---|---|
| 1777694118 | 26.67° C | 40% | 1017.6 hPa | 0 mm | - | 267 W/m² | - |
| 1777693518 | 26.67° C | 40% | 1017.8 hPa | 0 mm | - | 238 W/m² | - |
| 1777692918 | 26.67° C | 40% | 1017.8 hPa | 0 mm | - | 270 W/m² | - |
| 1777692318 | 26.67° C | 40% | 1018 hPa | 0 mm | - | 247 W/m² | - |
| 1777691718 | 26.67° C | 41% | 1018.2 hPa | 0 mm | - | 374 W/m² | - |
| 1777691118 | 26.67° C | 40% | 1018.3 hPa | 0 mm | - | 285 W/m² | - |
| 1777690517 | 26.67° C | 41% | 1018.5 hPa | 0 mm | - | 298 W/m² | - |
| 1777689917 | 26.67° C | 40% | 1018.8 hPa | 0 mm | - | 384 W/m² | - |
| 1777689317 | 26.67° C | 39% | 1019 hPa | 0 mm | - | 373 W/m² | - |
| 1777688717 | 26.67° C | 40% | 1019.3 hPa | 0 mm | - | 411 W/m² | - |
| 1777688118 | 26.67° C | 40% | 1019.5 hPa | 0 mm | - | 461 W/m² | - |
| 1777687518 | 26.67° C | 40% | 1019.7 hPa | 0 mm | - | 347 W/m² | - |
| 1777686917 | 26.11° C | 41% | 1019.8 hPa | 0 mm | - | 503 W/m² | - |
| 1777686318 | 26.11° C | 41% | 1020 hPa | 0 mm | - | 377 W/m² | - |
| 1777685717 | 25.56° C | 43% | 1020.2 hPa | 0 mm | - | 483 W/m² | - |
| 1777685117 | 25° C | 44% | 1020.4 hPa | 0 mm | - | 512 W/m² | - |
| 1777684517 | 25° C | 44% | 1020.5 hPa | 0 mm | - | 486 W/m² | - |
| 1777683917 | 24.44° C | 47% | 1020.7 hPa | 0 mm | - | 453 W/m² | - |
| 1777683317 | 23.33° C | 49% | 1020.9 hPa | 0 mm | - | 395 W/m² | - |
| 1777682717 | 23.33° C | 50% | 1021.1 hPa | 0 mm | - | 382 W/m² | - |
| 1777682117 | 22.22° C | 50% | 1021.1 hPa | 0 mm | - | 371 W/m² | - |
| 1777681517 | 22.22° C | 51% | 1021.1 hPa | 0 mm | - | 291 W/m² | - |
| 1777680917 | 22.22° C | 51% | 1021.2 hPa | 0 mm | - | 255 W/m² | - |
| 1777680317 | 22.22° C | 50% | 1021.4 hPa | 0 mm | - | 252 W/m² | - |
| 1777679717 | 22.78° C | 51% | 1021.5 hPa | 0 mm | - | 343 W/m² | - |
* Rain latest hour (hover to see other rain measurements)
** Current wind speed in m/s (hover to see current wind gust speed)